Theta_e
352 351 350 350 351 350 350 350 349 349 349 348 347 346 347 347 347 349 349 350 349 347 347 347 348 348 347 347 347 348 349 349 350 350 349 349 348 348 348 348 348 348
351 351 350 350 350 349 349 349 349 350 349 349 348 348 348 347 348 348 349 350 350 348 348 348 348 348 348 348 349 349 350 349 349 350 350 350 349 348 348 348 349 349
351 351 350 349 349 349 349 349 349 350 350 350 350 349 349 349 348 349 349 349 350 350 349 349 349 349 350 350 350 350 350 351 350 349 349 349 349 349 349 348 348 349
350 350 350 349 348 348 348 349 349 350 349 350 351 350 351 350 349 349 349 349 350 350 350 350 350 350 350 350 350 351 351 351 350 350 350 349 348 348 348 348 348 348
350 350 350 348 348 348 348 349 350 350 349 349 350 350 350 351 350 350 349 349 349 350 350 350 349 349 349 349 350 351 351 350 350 350 350 350 349 349 348 349 349 348
350 350 350 349 349 349 349 349 350 350 349 349 348 349 350 350 351 350 350 349 349 350 350 349 349 349 349 349 349 350 350 350 349 349 350 350 350 350 349 349 349 348
351 350 350 350 350 350 350 350 350 350 350 350 350 350 350 351 352 352 350 350 350 350 350 349 349 348 348 349 349 350 350 349 348 348 349 349 350 350 350 349 349 349
350 351 351 352 352 352 352 351 351 351 351 351 351 351 351 352 352 353 351 351 351 350 351 350 349 349 349 349 349 350 349 348 348 347 348 348 349 350 350 349 349 349
350 351 352 353 353 353 353 353 352 353 352 353 353 352 352 352 353 353 353 352 352 351 351 351 350 349 348 348 348 347 346 346 346 346 346 347 348 349 348 348 348 348
350 351 351 353 353 353 354 354 354 354 354 354 355 354 353 353 354 354 353 350 349 349 349 348 348 346 345 346 346 346 345 344 345 345 344 344 345 346 347 346 346 347
351 351 351 352 352 354 354 354 354 355 356 356 356 356 356 354 353 352 351 350 350 350 348 347 348 347 346 347 347 347 347 345 345 345 345 344 345 346 346 346 346 346
352 351 352 352 353 355 355 355 354 355 356 357 356 357 356 353 351 351 351 352 351 350 349 348 349 348 348 348 348 348 348 346 345 345 344 345 345 345 346 346 346 346
352 352 353 354 354 355 355 354 355 355 356 355 356 355 353 350 351 352 352 351 350 350 349 349 349 348 348 348 348 348 347 346 346 346 346 346 346 346 346 346 346 346
353 354 354 354 355 355 355 355 356 355 355 355 354 353 350 350 351 351 350 349 349 349 349 349 348 348 348 347 347 347 347 347 346 346 346 347 347 347 347 346 346 346
354 355 354 355 355 355 356 356 356 356 355 355 353 351 351 351 351 349 348 348 349 348 348 348 348 349 349 348 348 348 347 348 347 346 346 347 348 348 347 347 347 347
355 355 355 355 355 356 357 357 357 356 354 353 352 351 351 351 350 349 348 348 349 349 349 350 349 349 349 349 349 349 349 349 350 349 348 348 348 348 348 348 349 349
356 356 355 353 352 355 354 354 355 354 353 353 353 351 350 350 349 348 347 346 348 349 349 350 350 349 349 350 350 350 350 350 350 350 349 349 348 348 349 350 350 350
356 355 352 349 351 353 352 351 352 352 352 353 353 351 349 349 349 348 347 346 347 348 349 350 350 350 350 350 350 350 350 350 350 350 349 348 348 348 349 349 350 350
356 353 348 347 350 350 349 350 350 350 350 351 351 349 348 349 350 349 348 349 349 348 349 350 350 349 349 350 350 350 349 349 349 349 349 348 348 348 347 347 348 348
356 351 345 346 349 348 347 348 348 349 350 349 350 350 350 351 350 349 349 350 350 350 350 350 349 347 348 350 350 348 348 348 349 348 348 347 347 346 347 347 348 348
356 351 347 348 350 349 347 347 348 349 349 350 351 352 352 352 351 350 350 351 351 351 350 350 349 348 348 350 349 348 348 349 349 349 348 348 347 347 348 348 348 349
355 352 350 350 350 349 348 349 350 350 351 352 352 352 352 352 351 351 351 351 351 351 351 350 349 349 349 350 350 350 350 350 350 348 347 346 345 346 347 347 347 347
353 352 351 350 350 351 351 352 352 352 353 353 353 352 352 351 351 351 351 352 351 351 351 350 350 350 351 351 350 350 349 348 347 344 342 342 343 345 347 345 344 345
351 351 351 351 352 353 353 353 353 353 353 353 353 352 351 351 351 351 351 352 352 351 351 350 350 351 350 348 347 345 343 342 341 340 340 341 342 343 344 344 343 343
351 352 352 353 353 353 353 353 352 353 353 353 353 353 352 352 352 351 351 352 352 351 351 350 351 349 347 345 343 340 338 338 338 339 340 339 339 338 339 339 339 339
352 352 352 352 352 352 351 352 352 353 354 353 353 353 353 353 352 351 352 352 350 350 350 350 350 348 344 343 340 337 337 337 337 337 336 336 336 335 335 335 334 334
Wind_Speed
32 31 31 31 30 29 28 27 25 22 22 21 20 20 20 20 19 19 19 19 20 20 20 20 20 19 19 18 17 17 17 17 17 17 16 15 14 13 13 11 11 13
32 31 31 30 31 30 29 27 25 22 21 20 20 19 19 19 20 20 21 20 20 20 21 21 21 20 20 19 18 18 18 18 19 19 19 18 16 15 15 13 12 12
29 31 31 30 31 30 28 26 24 22 20 19 20 20 19 19 19 20 21 21 21 21 21 21 22 21 21 20 20 20 20 20 20 20 20 21 19 18 17 16 15 14
30 31 32 31 30 29 28 26 25 24 22 21 20 20 20 20 20 20 21 22 22 22 22 22 23 23 23 22 22 22 22 21 20 19 20 21 20 20 19 18 17 16
32 32 32 31 30 29 28 27 26 25 24 24 23 21 20 20 20 21 21 21 22 23 23 23 23 23 23 23 23 23 24 23 22 20 20 21 21 21 20 19 18 18
29 30 30 30 29 27 27 27 26 25 25 26 25 24 22 20 19 20 22 22 22 22 23 24 24 24 24 24 24 24 24 24 23 22 22 22 22 22 21 20 20 20
26 27 28 28 26 25 24 24 24 25 26 26 25 24 23 20 19 20 22 23 22 22 22 23 24 25 25 24 25 25 25 24 24 24 25 25 24 24 24 23 23 22
27 26 25 25 24 22 21 22 22 24 25 25 24 22 21 20 20 21 22 23 23 23 23 24 25 26 26 25 25 24 22 22 24 26 27 28 27 26 27 26 25 24
28 26 23 22 21 21 21 21 22 24 24 23 22 21 20 21 21 21 22 22 22 22 22 22 21 19 17 17 16 15 16 19 22 24 25 26 28 28 27 26 26 25
27 26 24 22 21 21 21 22 23 24 23 22 21 20 20 21 20 19 18 16 16 18 18 17 15 14 14 14 14 14 16 17 20 22 24 26 28 27 25 26 26 26
26 25 25 25 24 22 21 22 23 24 22 21 20 19 19 18 15 12 12 15 18 19 18 17 18 17 17 18 17 17 17 18 20 21 22 23 24 23 22 23 25 27
25 26 27 26 22 19 21 23 24 23 21 21 19 18 15 11 8 9 12 16 17 15 14 16 18 18 17 18 18 18 18 19 19 19 19 21 20 18 18 19 20 24
26 26 25 20 16 18 22 24 23 20 20 20 17 12 7 6 10 16 18 17 15 13 13 15 16 16 16 17 17 17 17 17 17 17 18 19 19 17 17 17 18 20
24 24 20 14 14 19 23 23 22 20 20 19 12 5 4 7 13 18 19 19 19 17 14 13 13 13 14 15 16 16 16 16 17 19 19 20 20 19 19 19 19 18
21 20 14 11 13 19 21 22 22 19 18 17 11 7 9 13 14 13 14 16 20 19 15 12 12 12 12 14 16 16 14 14 16 17 17 18 19 20 20 19 19 18
19 16 11 10 11 15 18 21 20 16 14 14 11 8 9 11 11 10 11 13 16 17 16 13 11 10 10 11 13 12 11 11 12 13 15 17 18 19 19 18 17 17
17 14 9 13 11 13 18 19 17 13 12 11 8 5 5 8 9 9 9 11 12 13 14 13 9 8 8 9 9 7 7 9 10 11 13 14 15 16 16 15 14 14
15 11 11 15 9 14 16 15 13 11 10 9 6 3 4 7 7 6 5 6 9 10 11 9 7 6 7 8 7 5 6 8 8 8 10 11 11 12 12 14 14 12
11 8 13 14 11 13 13 10 9 9 9 9 7 3 3 3 3 3 3 5 6 7 5 4 4 5 6 5 3 3 6 7 7 8 8 9 9 9 10 12 13 11
8 7 14 16 11 11 10 8 7 10 11 9 5 3 4 4 3 3 3 4 3 2 1 2 3 4 4 2 1 3 5 6 8 9 9 8 8 8 9 10 11 11
7 7 15 17 11 8 9 10 11 12 11 7 5 5 5 5 4 4 4 3 2 0 1 1 1 2 2 2 0 3 5 6 6 7 7 7 7 7 7 8 9 9
8 10 14 16 13 11 12 12 11 10 10 8 7 6 6 5 4 4 3 3 2 2 1 2 3 4 5 3 1 3 3 4 4 5 5 6 6 6 6 7 8 8
10 11 13 15 16 15 13 12 10 10 10 10 8 7 6 5 4 3 4 4 4 4 4 4 5 5 4 2 1 1 1 2 2 4 4 4 5 5 6 6 6 6
10 11 13 16 16 15 14 13 10 9 9 8 7 6 5 4 4 5 5 5 6 6 5 5 5 5 4 3 2 1 3 3 3 3 3 4 5 5 4 4 4 5
10 11 13 14 14 13 13 12 10 8 6 5 3 3 4 4 4 5 6 6 6 6 5 4 5 5 5 3 2 3 4 3 3 3 4 5 6 5 5 5 5 6
10 10 10 11 11 12 11 10 9 7 5 5 4 4 5 5 3 3 4 4 5 5 5 5 5 5 4 2 3 4 4 4 4 5 6 6 7 7 7 8 8 8
Wind_Direction
221 223 225 227 229 231 232 233 237 244 247 247 247 245 244 245 245 243 241 239 239 238 237 236 236 238 241 242 245 248 250 253 254 253 253 255 257 257 259 261 261 259
222 224 226 228 230 232 232 234 238 243 246 245 246 246 245 246 247 245 243 241 240 239 237 236 237 239 243 245 246 247 250 255 256 255 254 256 258 257 257 260 262 265
223 225 226 229 231 232 233 234 238 243 245 244 244 245 245 246 247 245 244 243 242 241 240 239 239 242 246 248 248 249 251 257 260 259 257 257 257 257 257 260 262 264
224 226 227 230 232 234 234 235 238 240 241 243 245 245 245 246 247 247 246 245 245 245 244 244 245 247 250 252 252 253 254 259 263 263 259 256 254 254 257 260 261 263
226 227 229 231 233 235 235 236 239 240 241 244 247 248 249 249 250 249 248 247 247 247 246 247 249 251 254 256 256 257 258 261 264 264 261 258 255 255 257 258 259 262
228 229 230 232 234 235 235 236 239 241 243 247 249 251 253 254 254 252 250 248 248 248 246 246 247 250 254 256 257 259 261 264 266 265 263 262 261 260 260 259 259 261
230 231 232 233 234 235 236 238 240 243 246 249 252 253 255 257 259 257 253 250 249 249 248 247 248 249 250 253 256 259 261 264 265 264 264 265 266 266 265 264 263 264
231 233 234 234 234 235 238 241 244 248 250 252 254 254 254 256 258 260 258 254 251 250 250 250 250 250 250 252 255 260 265 269 269 265 264 264 264 267 268 267 265 265
230 231 233 234 235 237 241 245 249 253 255 256 258 257 255 256 259 262 262 259 257 256 257 259 256 258 266 268 270 279 286 291 294 292 288 283 278 275 274 274 270 265
229 230 230 232 235 238 241 245 250 254 255 256 257 257 256 258 260 261 263 265 267 265 267 272 273 273 281 281 277 279 276 277 287 295 301 304 301 296 294 295 290 280
228 228 229 231 233 235 237 243 248 250 252 254 255 257 258 258 258 261 268 271 272 269 266 269 273 269 264 263 267 273 272 268 268 271 276 285 293 297 298 298 295 289
228 229 230 230 228 229 234 242 247 248 251 255 256 259 263 268 276 280 276 272 274 275 270 270 274 271 265 265 270 274 276 272 268 267 267 271 279 284 285 286 284 282
228 230 231 226 223 230 239 245 250 251 254 258 261 269 288 308 296 283 275 272 274 274 271 271 272 269 268 270 272 272 273 271 271 274 276 277 276 270 265 268 271 273
230 232 229 218 222 238 246 250 254 255 258 263 268 284 294 279 275 275 275 276 274 269 266 269 270 271 271 270 271 273 275 277 281 284 284 283 278 269 264 264 264 267
232 232 220 203 223 245 253 257 260 260 260 264 268 269 271 271 274 277 279 280 278 272 266 263 264 268 271 270 273 277 278 283 290 290 286 283 280 275 272 269 266 266
230 231 213 186 208 243 258 264 267 265 261 266 268 263 274 286 289 282 268 264 272 275 272 269 267 269 272 275 279 283 287 295 301 296 285 280 279 277 275 273 272 275
227 229 190 152 177 238 257 261 264 264 264 271 272 261 279 291 290 283 264 251 255 264 270 276 282 285 286 286 287 294 303 306 305 298 289 284 282 281 282 285 288 289
227 214 153 141 189 249 253 248 252 258 257 259 259 257 284 290 290 295 278 241 232 240 254 268 283 291 290 287 287 300 304 299 296 292 288 287 286 283 288 293 292 293
227 195 149 155 208 236 231 233 243 238 233 242 251 235 213 240 266 278 257 219 213 225 239 247 248 255 262 268 280 296 290 284 283 282 282 288 292 293 295 295 292 299
226 186 149 155 188 212 213 217 212 207 215 231 243 210 172 174 191 206 202 194 200 222 228 197 197 214 232 251 280 278 272 271 275 280 284 295 305 311 314 315 317 324
214 177 148 154 175 190 191 193 193 197 203 204 197 178 164 170 187 192 182 174 171 158 106 123 146 153 117 81 65 252 258 266 278 290 301 315 328 338 339 337 341 343
197 180 157 159 168 168 170 178 182 181 177 172 171 170 173 185 193 188 175 160 136 115 99 82 81 88 92 96 190 261 276 282 295 320 336 342 348 355 356 357 358 351
192 183 165 161 162 160 161 166 169 169 168 171 174 177 190 204 194 168 158 143 127 116 98 80 78 82 88 110 173 278 316 310 326 347 356 4 7 9 13 15 7 355
182 173 164 159 156 153 155 160 166 172 174 174 174 177 185 186 162 151 148 132 120 112 97 82 84 94 104 111 99 16 329 330 353 15 28 31 26 19 12 3 352 350
169 165 161 154 149 149 153 157 161 166 171 165 154 154 155 144 131 132 130 119 114 116 116 108 104 105 106 96 49 356 347 5 36 52 50 37 27 25 19 10 4 360
164 158 148 141 141 144 147 151 153 154 153 146 137 129 124 116 103 95 96 102 110 121 129 130 124 119 112 80 19 9 29 59 65 62 53 37 26 24 22 18 13 9